Location: Deneb Observatory
(47.2267°N, 100.4953°W)
Time: 03:20:02
(UTC-05:00)

Amateur Radio Satellites - All Passes

Search period start: 30 September 2016 02:50
Search period end: 01 October 2016 02:50
Location: Deneb Observatory, 47.2267°N, 100.4953°W

Satellite Date Start Highest point End Downlink Frequencies (MHz)
Time Altitude Azimuth
BEESAT 3 30 Sep 02:50:25 02:53:59 33° 317° (NW) 02:57:36 437.485
RS-15 30 Sep 02:52:57 03:04:18 40° 21° (NNE) 03:15:39 29.354- 29.394
NANOSAT C BR1 30 Sep 03:02:35 03:04:46 14° 300° (WNW) 03:06:57 145.865
JAS-2 30 Sep 03:13:16 03:20:11 35° 300° (WNW) 03:26:53 435.910
AIST 2 30 Sep 03:19:46 03:21:49 14° 110° (ESE) 03:23:55 435.215
MOZHAYETS 4 30 Sep 03:28:07 03:31:43 23° 63° (ENE) 03:35:18
ITUPSAT 1 30 Sep 03:34:38 03:39:22 65° 258° (WSW) 03:44:09 437.325
KKS-1 30 Sep 03:36:43 03:39:50 19° 61° (ENE) 03:42:56 437.445
Cosmos 2491 30 Sep 03:37:38 03:46:16 60° 269° (W) 03:54:50 435.465 / 435.565
AO-85 30 Sep 03:41:35 03:43:09 12° 20° (NNE) 03:44:40 145.980
PCSat 30 Sep 03:46:05 03:48:35 13° 103° (ESE) 03:51:05 145.827
SWISSCUBE 30 Sep 03:46:40 03:51:13 45° 261° (W) 03:55:49 437.505
ITAMSAT 1 30 Sep 03:47:09 03:51:04 21° 92° (E) 03:54:59 435.822/435.867
BEESAT 2 30 Sep 03:51:45 03:54:47 20° 324° (NW) 03:57:50 435.950
BEESAT 30 Sep 03:59:33 04:03:58 38° 262° (W) 04:08:26 436.000
Cosmos 2504 30 Sep 04:03:09 04:09:27 33° 85° (E) 04:15:37 435.465 / 435.565
STARS 30 Sep 04:03:57 04:06:51 18° 61° (ENE) 04:09:46 437.465
Gurwin Techsat 1B 30 Sep 04:04:54 04:10:16 86° 285° (WNW) 04:15:36 435.225
Oscar 19 30 Sep 04:27:52 04:32:18 30° 297° (WNW) 04:36:42 437.125/150
YUBILEINY 30 Sep 04:39:15 04:47:59 67° 283° (WNW) 04:56:44 435.215
AO-7 30 Sep 04:49:38 04:57:21 40° 98° (E) 05:04:59 29.400- 29.500
AIST 1 30 Sep 04:50:52 04:52:44 13° 83° (E) 04:54:37
CUBESAT XI-V 30 Sep 04:54:10 04:57:58 25° 64° (ENE) 05:01:47 437.345
AIST 2 30 Sep 04:55:38 04:59:44 75° 308° (NW) 05:03:55 435.215
MOZHAYETS 4 30 Sep 05:04:13 05:08:36 46° 262° (W) 05:13:03
RS-15 30 Sep 05:06:31 05:19:00 80° 50° (NE) 05:31:15 29.354- 29.394
KKS-1 30 Sep 05:11:38 05:16:00 55° 259° (W) 05:20:24 437.445
CUSAT 1 30 Sep 05:18:35 05:24:51 25° 58° (ENE) 05:30:23 437.405
AO-85 30 Sep 05:20:48 05:24:50 39° 44° (NE) 05:28:37 145.980
PCSat 30 Sep 05:25:41 05:31:06 82° 122° (ESE) 05:36:34 145.827
ITAMSAT 1 30 Sep 05:25:47 05:30:55 59° 290° (WNW) 05:36:03 435.822/435.867
DANDE 30 Sep 05:30:03 05:35:31 19° 52° (NE) 05:40:53 436.750
Cosmos 2491 30 Sep 05:38:03 05:41:04 12° 291° (WNW) 05:44:05 435.465 / 435.565
STARS 30 Sep 05:38:28 05:42:48 58° 259° (WSW) 05:47:08 437.465
Gurwin Techsat 1B 30 Sep 05:46:27 05:49:27 15° 305° (NW) 05:52:26 435.225
Cosmos 2504 30 Sep 05:55:26 06:02:30 51° 286° (WNW) 06:09:29 435.465 / 435.565
HORYU 2 30 Sep 06:19:44 06:23:39 29° 96° (E) 06:27:33 437.375
AIST 1 30 Sep 06:25:22 06:29:44 70° 281° (W) 06:34:07
CUBESAT XI-V 30 Sep 06:30:36 06:35:06 44° 262° (W) 06:39:39 437.345
AIST 2 30 Sep 06:36:23 06:38:56 16° 329° (NNW) 06:41:31 435.215
YUBILEINY 30 Sep 06:41:28 06:46:46 17° 308° (NW) 06:52:06 435.215
AO-7 30 Sep 06:42:21 06:50:22 55° 298° (WNW) 06:58:20 29.400- 29.500
STRAND 1 30 Sep 06:57:00 07:01:07 25° 62° (ENE) 07:05:15 437.568
CUSAT 1 30 Sep 07:00:05 07:07:54 81° 262° (W) 07:14:21 437.405
O/OREOS (USA 219) 30 Sep 07:01:23 07:04:36 19° 101° (E) 07:07:50 437.305
AO-85 30 Sep 07:01:37 07:05:04 26° 245° (WSW) 07:08:22 145.980
GOMX 1 30 Sep 07:03:05 07:06:22 20° 91° (E) 07:09:32 467.674
NOAA 18 30 Sep 07:06:51 07:10:28 18° 90° (E) 07:14:04 137.9125
ITAMSAT 1 30 Sep 07:08:23 07:09:21 10° 309° (NW) 07:10:18 435.822/435.867
PCSat 30 Sep 07:10:51 07:15:10 24° 323° (NW) 07:19:30 145.827
DANDE 30 Sep 07:11:39 07:20:03 65° 74° (ENE) 07:27:50 436.750
DOVE 4 30 Sep 07:13:35 07:14:18 10° 87° (E) 07:15:00 437.250
NOAA 15 30 Sep 07:18:52 07:23:38 33° 96° (E) 07:28:22 137.62
RS-15 30 Sep 07:19:50 07:30:28 36° 255° (WSW) 07:40:55 29.354- 29.394
LilacSat-2 30 Sep 07:25:49 07:29:12 29° 96° (E) 07:32:35 437.200
BRITE-PL 30 Sep 07:26:02 07:30:54 82° 103° (ESE) 07:35:20 437.365/2234.400
CUTE-I 30 Sep 07:43:20 07:48:28 45° 99° (E) 07:53:35 437.470
Cubesat XI-IV 30 Sep 07:44:01 07:49:09 45° 98° (E) 07:54:17 437.490
BEESAT 3 30 Sep 07:50:20 07:52:04 12° 28° (NNE) 07:53:47 437.485
HORYU 2 30 Sep 07:56:14 08:00:12 32° 294° (WNW) 08:04:11 437.375
Cosmos 2504 30 Sep 07:57:12 07:57:56 10° 311° (NW) 07:58:41 435.465 / 435.565
CINEMA 3 30 Sep 08:06:48 08:07:25 10° 87° (E) 08:08:03 145.822/145.860
PRISM 30 Sep 08:23:33 08:26:02 16° 60° (ENE) 08:28:31 437.425
STRAND 1 30 Sep 08:35:03 08:40:00 50° 260° (W) 08:45:00 437.568
AO-7 30 Sep 08:36:44 08:41:23 17° 321° (NW) 08:46:02 29.400- 29.500
O/OREOS (USA 219) 30 Sep 08:39:07 08:43:36 54° 300° (WNW) 08:48:08 437.305
GOMX 1 30 Sep 08:40:34 08:44:44 41° 291° (WNW) 08:48:42 467.674
CUSAT 1 30 Sep 08:43:57 08:48:28 17° 284° (WNW) 08:52:35 437.405
NOAA 18 30 Sep 08:46:14 08:51:42 74° 288° (WNW) 08:57:10 137.9125
DOVE 4 30 Sep 08:48:26 08:52:39 78° 284° (WNW) 08:56:46 437.250
BEESAT 2 30 Sep 08:50:37 08:53:31 19° 35° (NE) 08:56:24 435.950
HO-68 30 Sep 08:52:09 08:58:27 32° 95° (E) 09:04:43 435.675
DANDE 30 Sep 08:55:05 09:02:21 34° 275° (W) 09:09:11 436.750
CUBEBUG 2 30 Sep 08:56:46 08:57:23 10° 87° (E) 08:58:01 437.445
Cosmos 2499 30 Sep 08:58:32 09:04:54 37° 87° (E) 09:11:16 435.465 / 435.565
NOAA 15 30 Sep 08:58:34 09:03:28 39° 294° (WNW) 09:08:19 137.62
LilacSat-2 30 Sep 09:00:15 09:03:24 25° 293° (WNW) 09:06:34 437.200
GONETS M04 30 Sep 09:02:09 09:10:35 51° 89° (E) 09:19:01
BRITE-PL 30 Sep 09:06:05 09:08:37 14° 304° (NW) 09:11:05 437.365/2234.400
SEEDS 30 Sep 09:09:23 09:12:57 25° 94° (E) 09:16:28 437.485
CUTE 1.7 + AOD 2 30 Sep 09:12:32 09:16:34 37° 97° (E) 09:20:34 437.475
CANX-2 30 Sep 09:14:16 09:18:26 45° 99° (E) 09:22:33 2200.000
CUTE-I 30 Sep 09:23:45 09:28:20 30° 297° (WNW) 09:32:56 437.470
Cubesat XI-IV 30 Sep 09:24:27 09:29:03 30° 297° (WNW) 09:33:39 437.490
AAUSAT CUBESAT 2 30 Sep 09:24:33 09:27:42 20° 92° (E) 09:30:48 437.432
BEESAT 3 30 Sep 09:26:41 09:30:36 53° 49° (NE) 09:34:30 437.485
ZACube-1 30 Sep 09:32:17 09:33:19 11° 87° (E) 09:34:22 437.345
UNISAT 6 30 Sep 09:38:18 09:40:23 13° 59° (ENE) 09:42:28 437.425
CINEMA 3 30 Sep 09:40:56 09:45:07 82° 286° (WNW) 09:49:24 145.822/145.860
PRISM 30 Sep 09:56:44 10:00:52 62° 259° (WSW) 10:05:02 437.425
JAS-2 30 Sep 10:04:42 10:06:03 11° 39° (NE) 10:07:25 435.910
COMPASS 1 30 Sep 10:10:49 10:15:03 76° 101° (ESE) 10:19:16 437.405
ANTELSAT 30 Sep 10:11:47 10:15:21 27° 66° (ENE) 10:18:57 437.575/2403.000
FUNcube-1 30 Sep 10:22:27 10:26:23 32° 96° (E) 10:30:22 145.935
DELFI C3 30 Sep 10:22:30 10:24:29 13° 89° (E) 10:26:25 145.870
O/OREOS (USA 219) 30 Sep 10:23:28 10:24:07 10° 321° (NW) 10:24:46 437.305
BEESAT 2 30 Sep 10:27:46 10:31:49 77° 233° (SW) 10:35:49 435.950
NOAA 18 30 Sep 10:28:47 10:31:29 14° 308° (NW) 10:34:10 137.9125
CUBEBUG 2 30 Sep 10:30:17 10:34:36 87° 279° (W) 10:39:01 437.445
TIGRISAT 30 Sep 10:31:05 10:35:01 38° 69° (ENE) 10:38:59 435.000
HO-68 30 Sep 10:39:32 10:46:31 58° 294° (WNW) 10:53:28 435.675
UWE-3 30 Sep 10:42:37 10:46:58 85° 105° (ESE) 10:51:25 435.000/436.395/437.385
SEEDS 30 Sep 10:44:49 10:48:42 34° 292° (WNW) 10:52:34 437.485
PCSat 30 Sep 10:45:42 10:46:52 11° 16° (NNE) 10:48:02 145.827
CUTE 1.7 + AOD 2 30 Sep 10:48:46 10:52:14 24° 295° (WNW) 10:55:42 437.475
CANX-2 30 Sep 10:50:46 10:54:00 21° 296° (WNW) 10:57:13 2200.000
Cosmos 2499 30 Sep 10:51:11 10:57:53 44° 288° (WNW) 11:04:39 435.465 / 435.565
Oscar 11 30 Sep 10:58:40 11:03:04 78° 104° (ESE) 11:07:26 145.826/435.025
GONETS M04 30 Sep 10:59:20 11:07:36 42° 291° (WNW) 11:15:56
AAUSAT CUBESAT 2 30 Sep 10:59:23 11:03:21 42° 290° (WNW) 11:07:18 437.432
HUMSAT D 30 Sep 11:02:59 11:06:09 20° 92° (E) 11:09:17 437.325/437.525
BEESAT 3 30 Sep 11:05:08 11:07:54 18° 247° (WSW) 11:10:40 437.485
ZACube-1 30 Sep 11:05:49 11:10:11 86° 284° (WNW) 11:14:37 437.345
QB50P2 30 Sep 11:12:10 11:15:06 19° 62° (ENE) 11:18:01 145.880/145.840
UNISAT 6 30 Sep 11:12:17 11:16:32 75° 256° (WSW) 11:20:49 437.425
POLYITAN 1 30 Sep 11:14:22 11:17:16 19° 62° (ENE) 11:20:12 437.675
PHONESAT 2.4 30 Sep 11:31:38 11:33:32 16° 165° (SSE) 11:35:26 2401.200-2431.200
AIST 2 30 Sep 11:35:59 11:39:41 29° 41° (NE) 11:43:22 435.215
BUGSAT 1 30 Sep 11:40:18 11:42:11 13° 60° (ENE) 11:44:02 437.445
JAS-2 30 Sep 11:42:42 11:48:58 40° 62° (ENE) 11:55:52 435.910
DUCHIFAT 1 30 Sep 11:47:15 11:50:59 33° 68° (ENE) 11:54:44 145.980
COMPASS 1 30 Sep 11:48:02 11:50:02 13° 301° (WNW) 11:52:02 437.405
ANTELSAT 30 Sep 11:48:09 11:52:00 32° 264° (W) 11:55:51 437.575/2403.000
QB50P1 30 Sep 11:52:15 11:56:12 42° 70° (ENE) 12:00:11 145.935-145.965
DELFI C3 30 Sep 11:55:43 11:59:42 60° 287° (WNW) 12:03:38 145.870
FUNcube-1 30 Sep 11:58:50 12:02:33 28° 293° (WNW) 12:06:19 145.935
POPSAT HIP 1 30 Sep 12:05:53 12:09:59 57° 73° (ENE) 12:14:07 437.405
TIGRISAT 30 Sep 12:08:33 12:11:53 22° 267° (W) 12:15:13 435.000
CUBEBUG 2 30 Sep 12:09:14 12:10:34 11° 302° (WNW) 12:11:56 437.445
CUBEBUG 1 30 Sep 12:13:33 12:14:54 11° 87° (E) 12:16:14 437.445
NANOSAT C BR1 30 Sep 12:20:07 12:24:18 77° 74° (ENE) 12:28:30 145.865
UWE-3 30 Sep 12:21:00 12:22:50 13° 301° (WNW) 12:24:41 435.000/436.395/437.385
ESTCUBE 1 30 Sep 12:27:29 12:31:16 25° 94° (E) 12:35:01 437.505/2401.250
PCSat 30 Sep 12:27:34 12:32:13 28° 40° (NE) 12:36:50 145.827
HO-68 30 Sep 12:29:12 12:32:49 15° 316° (NW) 12:36:24 435.675
Oscar 19 30 Sep 12:31:56 12:34:38 14° 55° (NE) 12:37:19 437.125/150
50 SAT 30 Sep 12:36:22 12:37:56 12° 90° (E) 12:39:29 437.505
Oscar 11 30 Sep 12:36:25 12:38:36 14° 301° (WNW) 12:40:48 145.826/435.025
HUMSAT D 30 Sep 12:37:54 12:41:57 44° 289° (WNW) 12:46:03 437.325/437.525
ZACube-1 30 Sep 12:44:25 12:45:48 11° 302° (WNW) 12:47:12 437.345
QB50P2 30 Sep 12:46:29 12:50:34 49° 260° (W) 12:54:40 145.880/145.840
POLYITAN 1 30 Sep 12:48:40 12:52:44 49° 260° (W) 12:56:50 437.675
YUBILEINY 30 Sep 12:49:55 12:55:37 19° 54° (NE) 13:01:18 435.215
UKube-1 30 Sep 13:00:22 13:02:23 13° 89° (E) 13:04:22 .
PHONESAT 2.4 30 Sep 13:06:44 13:09:05 22° 182° (S) 13:11:25 2401.200-2431.200
AISAT 30 Sep 13:07:35 13:11:33 32° 96° (E) 13:15:29 437.250
BUGSAT 1 30 Sep 13:12:56 13:17:01 73° 258° (WSW) 13:21:05 437.445
AIST 2 30 Sep 13:14:19 13:18:18 42° 240° (WSW) 13:22:15 435.215
DUCHIFAT 1 30 Sep 13:23:14 13:26:43 25° 265° (W) 13:30:13 145.980
JAS-2 30 Sep 13:27:22 13:33:49 49° 264° (W) 13:41:03 435.910
QB50P1 30 Sep 13:29:02 13:32:10 20° 267° (W) 13:35:19 145.935-145.965
M-CUBED/EXP-1 PRIME 30 Sep 13:31:13 13:33:36 18° 100° (E) 13:35:57 437.505
DX 1 30 Sep 13:33:02 13:37:02 35° 97° (E) 13:41:01 434.975-435.025
POPSAT HIP 1 30 Sep 13:43:41 13:46:08 15° 270° (W) 13:48:36 437.405
CUBEBUG 1 30 Sep 13:47:24 13:51:46 80° 284° (WNW) 13:56:04 437.445
Gurwin Techsat 1B 30 Sep 13:50:12 13:54:50 32° 64° (ENE) 13:59:29 435.225
VELOX 1 30 Sep 13:50:40 13:55:06 84° 106° (ESE) 13:59:29 145.980
Cosmos 2504 30 Sep 13:51:01 13:55:02 15° 55° (NE) 13:59:08 435.465 / 435.565
TISAT 1 30 Sep 13:51:32 13:52:15 10° 88° (E) 13:52:59 437.305
NANOSAT C BR1 30 Sep 13:59:21 14:00:34 11° 272° (W) 14:01:47 145.865
AO-7 30 Sep 14:02:53 14:08:32 21° 43° (NE) 14:14:10 29.400- 29.500
ESTCUBE 1 30 Sep 14:03:58 14:08:11 38° 292° (WNW) 14:12:22 437.505/2401.250
Oscar 19 30 Sep 14:07:57 14:13:10 83° 74° (ENE) 14:18:23 437.125/150
50 SAT 30 Sep 14:08:10 14:11:47 54° 287° (WNW) 14:15:20 437.505
PCSat 30 Sep 14:10:40 14:16:04 65° 241° (WSW) 14:21:25 145.827
SPROUT 30 Sep 14:14:33 14:18:49 88° 104° (ESE) 14:23:05 437.525
AUBIESAT-1 30 Sep 14:24:57 14:28:15 70° 108° (ESE) 14:31:35 437.475
UKube-1 30 Sep 14:34:35 14:38:55 70° 286° (WNW) 14:43:11 .
PHONESAT 2.4 30 Sep 14:43:04 14:44:35 13° 199° (SSW) 14:46:06 2401.200-2431.200
AISAT 30 Sep 14:44:11 14:47:58 29° 294° (WNW) 14:51:43 437.250
YUBILEINY 30 Sep 14:45:28 14:54:13 74° 78° (ENE) 15:02:54 435.215
Cosmos 2491 30 Sep 14:46:36 14:54:20 36° 84° (E) 15:02:06 435.465 / 435.565
M-CUBED/EXP-1 PRIME 30 Sep 15:05:21 15:08:13 28° 297° (WNW) 15:11:05 437.505
ITAMSAT 1 30 Sep 15:07:50 15:12:43 44° 67° (ENE) 15:17:37 435.822/435.867
DX 1 30 Sep 15:09:28 15:13:06 26° 295° (WNW) 15:16:42 434.975-435.025
TISAT 1 30 Sep 15:24:17 15:28:28 82° 287° (WNW) 15:32:38 437.305
CUBEBUG 1 30 Sep 15:26:20 15:27:18 11° 304° (NW) 15:28:15 437.445
VELOX 1 30 Sep 15:28:53 15:30:55 13° 303° (WNW) 15:32:58 145.980
O/OREOS (USA 219) 30 Sep 15:29:19 15:30:54 12° 41° (NE) 15:32:29 437.305
Gurwin Techsat 1B 30 Sep 15:29:40 15:34:40 41° 262° (W) 15:39:42 435.225
ITUPSAT 1 30 Sep 15:32:18 15:36:19 25° 94° (E) 15:40:17 437.325
SO-50 30 Sep 15:36:20 15:40:57 47° 121° (ESE) 15:45:33 436.795
Cosmos 2504 30 Sep 15:42:30 15:49:56 68° 78° (ENE) 15:57:51 435.465 / 435.565
SWISSCUBE 30 Sep 15:43:28 15:47:54 36° 97° (E) 15:52:19 437.505
Oscar 19 30 Sep 15:50:19 15:53:08 15° 272° (W) 15:55:58 437.125/150
AO-7 30 Sep 15:51:42 15:59:57 70° 66° (ENE) 16:08:12 29.400- 29.500
SPROUT 30 Sep 15:52:33 15:54:05 12° 302° (WNW) 15:55:39 437.525
BEESAT 30 Sep 15:56:01 16:00:36 42° 99° (E) 16:05:08 436.000
AIST 1 30 Sep 16:29:15 16:33:16 38° 74° (ENE) 16:37:15
Cosmos 2491 30 Sep 16:42:08 16:50:46 58° 286° (WNW) 16:59:31 435.465 / 435.565
YUBILEINY 30 Sep 16:43:17 16:50:11 27° 280° (W) 16:57:04 435.215
ITAMSAT 1 30 Sep 16:47:55 16:52:20 28° 266° (W) 16:56:47 435.822/435.867
MOZHAYETS 4 30 Sep 16:55:55 17:00:08 33° 96° (E) 17:04:20
KKS-1 30 Sep 16:59:52 17:03:20 22° 93° (E) 17:06:46 437.445
BRITE-PL 30 Sep 17:01:58 17:06:10 22° 61° (ENE) 17:10:15 437.365/2234.400
TISAT 1 30 Sep 17:02:52 17:03:24 10° 303° (WNW) 17:03:56 437.305
NOAA 15 30 Sep 17:05:55 17:08:12 13° 53° (NE) 17:10:31 137.62
O/OREOS (USA 219) 30 Sep 17:06:43 17:11:18 62° 62° (ENE) 17:15:51 437.305
ITUPSAT 1 30 Sep 17:09:45 17:14:18 43° 292° (WNW) 17:18:50 437.325
SO-50 30 Sep 17:17:16 17:21:37 32° 320° (NW) 17:25:54 436.795
HORYU 2 30 Sep 17:20:31 17:24:38 40° 68° (ENE) 17:28:46 437.375
SWISSCUBE 30 Sep 17:21:25 17:25:36 31° 295° (WNW) 17:29:48 437.505
STARS 30 Sep 17:25:18 17:28:31 20° 93° (E) 17:31:43 437.465
CUTE-I 30 Sep 17:30:58 17:34:15 17° 56° (NE) 17:37:33 437.470
Cubesat XI-IV 30 Sep 17:31:47 17:35:06 17° 56° (NE) 17:38:25 437.490
BEESAT 30 Sep 17:34:12 17:38:11 26° 297° (WNW) 17:42:09 436.000
Cosmos 2504 30 Sep 17:36:48 17:42:44 27° 277° (W) 17:48:57 435.465 / 435.565
AO-7 30 Sep 17:46:18 17:53:21 30° 266° (W) 18:00:26 29.400- 29.500
AIST 1 30 Sep 18:07:23 18:10:37 21° 273° (W) 18:13:50
LilacSat-2 30 Sep 18:11:02 18:14:02 23° 66° (ENE) 18:17:04 437.200
GOMX 1 30 Sep 18:12:58 18:17:48 37° 68° (ENE) 18:22:22 467.674
DOVE 4 30 Sep 18:20:18 18:23:45 20° 63° (ENE) 18:27:05 437.250
CUBESAT XI-V 30 Sep 18:23:52 18:28:14 36° 97° (E) 18:32:31 437.345
CUSAT 1 30 Sep 18:24:03 18:28:43 19° 77° (ENE) 18:33:48 437.405
MOZHAYETS 4 30 Sep 18:33:09 18:37:15 31° 294° (WNW) 18:41:19
NOAA 18 30 Sep 18:35:40 18:40:50 45° 67° (ENE) 18:46:01 137.9125
KKS-1 30 Sep 18:35:54 18:40:05 42° 291° (WNW) 18:44:15 437.445
BRITE-PL 30 Sep 18:38:29 18:44:09 69° 259° (WSW) 18:49:39 437.365/2234.400
NOAA 15 30 Sep 18:41:47 18:47:03 71° 72° (ENE) 18:52:23 137.62
Cosmos 2499 30 Sep 18:44:41 18:49:32 18° 58° (ENE) 18:54:35 435.465 / 435.565
Cosmos 2491 30 Sep 18:45:28 18:49:59 15° 311° (NW) 18:54:30 435.465 / 435.565
O/OREOS (USA 219) 30 Sep 18:47:19 18:50:11 17° 261° (W) 18:53:04 437.305
HORYU 2 30 Sep 18:57:48 19:01:20 23° 266° (W) 19:04:53 437.375
STARS 30 Sep 19:00:55 19:05:07 46° 290° (WNW) 19:09:17 437.465
SO-50 30 Sep 19:01:45 19:03:32 12° 343° (NNW) 19:05:17 436.795
CUTE-I 30 Sep 19:08:18 19:13:37 86° 257° (WSW) 19:18:59 437.470
GONETS M04 30 Sep 19:08:27 19:16:03 31° 63° (ENE) 19:23:32
Cubesat XI-IV 30 Sep 19:09:10 19:14:29 85° 255° (WSW) 19:19:51 437.490
CINEMA 3 30 Sep 19:10:30 19:13:05 16° 62° (ENE) 19:15:37 145.822/145.860
HO-68 30 Sep 19:24:13 19:30:32 35° 58° (ENE) 19:36:50 435.675
ISS 30 Sep 19:33:48 19:34:46 11° 133° (SE) 19:35:44 145.825
RS-15 30 Sep 19:34:38 19:44:39 36° 105° (ESE) 19:55:04 29.354- 29.394
LilacSat-2 30 Sep 19:44:52 19:48:13 30° 264° (W) 19:51:35 437.200
GOMX 1 30 Sep 19:51:06 19:55:52 33° 264° (W) 20:00:26 467.674
DOVE 4 30 Sep 19:56:17 20:01:08 57° 260° (W) 20:05:43 437.250
CUBEBUG 2 30 Sep 19:57:30 19:59:27 13° 60° (ENE) 20:01:24 437.445
CUBESAT XI-V 30 Sep 20:01:28 20:05:29 29° 295° (WNW) 20:09:28 437.345
CUSAT 1 30 Sep 20:02:41 20:09:26 86° 100° (E) 20:17:25 437.405
SEEDS 30 Sep 20:04:02 20:07:33 26° 66° (ENE) 20:11:06 437.485
CUTE 1.7 + AOD 2 30 Sep 20:07:58 20:11:55 39° 70° (ENE) 20:15:55 437.475
UWE-3 30 Sep 20:09:23 20:10:52 12° 59° (ENE) 20:12:23 435.000/436.395/437.385
CANX-2 30 Sep 20:09:45 20:13:49 46° 71° (ENE) 20:17:56 2200.000
NOAA 18 30 Sep 20:16:57 20:21:40 29° 265° (W) 20:26:24 137.9125
AAUSAT CUBESAT 2 30 Sep 20:17:50 20:20:57 21° 64° (ENE) 20:24:06 437.432
BRITE-PL 30 Sep 20:22:13 20:23:29 11° 276° (W) 20:24:45 437.365/2234.400
DANDE 30 Sep 20:22:27 20:27:59 53° 92° (E) 20:35:06 436.750
Oscar 11 30 Sep 20:23:36 20:24:58 11° 57° (ENE) 20:26:19 145.826/435.025
NOAA 15 30 Sep 20:23:51 20:27:23 18° 270° (W) 20:30:56 137.62
ZACube-1 30 Sep 20:31:06 20:32:57 13° 59° (ENE) 20:34:49 437.345
Cosmos 2499 30 Sep 20:36:22 20:43:57 77° 80° (E) 20:52:09 435.465 / 435.565
STRAND 1 30 Sep 20:42:10 20:47:05 43° 98° (E) 20:51:59 437.568
CINEMA 3 30 Sep 20:45:28 20:49:49 62° 259° (WSW) 20:54:02 145.822/145.860
CUTE-I 30 Sep 20:52:14 20:54:28 13° 274° (W) 20:56:42 437.470
Cubesat XI-IV 30 Sep 20:53:10 20:55:22 12° 274° (W) 20:57:35 437.490
COMPASS 1 30 Sep 21:04:05 21:08:16 75° 75° (ENE) 21:12:30 437.405
GONETS M04 30 Sep 21:04:55 21:13:41 71° 266° (W) 21:22:21
ISS 30 Sep 21:07:28 21:10:42 63° 150° (SSE) 21:13:56 145.825
HO-68 30 Sep 21:10:57 21:17:58 57° 258° (WSW) 21:25:02 435.675
DELFI C3 30 Sep 21:11:45 21:13:39 13° 60° (ENE) 21:15:34 145.870
AO-85 30 Sep 21:17:04 21:21:59 45° 120° (ESE) 21:26:36 145.980
FUNcube-1 30 Sep 21:21:02 21:24:47 35° 69° (ENE) 21:28:36 145.935
CUBEBUG 2 30 Sep 21:31:23 21:35:32 73° 258° (WSW) 21:39:42 437.445
PRISM 30 Sep 21:36:28 21:38:42 14° 90° (E) 21:40:55 437.425
SEEDS 30 Sep 21:39:19 21:43:08 33° 264° (W) 21:47:00 437.485
UWE-3 30 Sep 21:42:35 21:46:44 83° 259° (WSW) 21:50:54 435.000/436.395/437.385
RS-15 30 Sep 21:44:16 21:56:03 79° 310° (NW) 22:08:26 29.354- 29.394
CUTE 1.7 + AOD 2 30 Sep 21:44:35 21:47:55 22° 268° (W) 21:51:16 437.475
CUSAT 1 30 Sep 21:46:54 21:52:34 25° 303° (WNW) 21:58:50 437.405
CANX-2 30 Sep 21:46:54 21:49:56 19° 269° (W) 21:52:58 2200.000
AAUSAT CUBESAT 2 30 Sep 21:52:12 21:56:10 42° 262° (W) 22:00:11 437.432
Oscar 11 30 Sep 21:56:04 22:00:23 86° 72° (ENE) 22:04:45 145.826/435.025
HUMSAT D 30 Sep 21:57:27 22:00:29 20° 64° (ENE) 22:03:34 437.325/437.525
ZACube-1 30 Sep 22:04:33 22:08:41 76° 258° (WSW) 22:12:51 437.345
DANDE 30 Sep 22:05:52 22:11:13 33° 298° (WNW) 22:17:51 436.750
STRAND 1 30 Sep 22:21:42 22:26:05 29° 297° (WNW) 22:30:29 437.568
SO-50 30 Sep 22:24:55 22:28:28 21° 33° (NNE) 22:31:58 436.795
Cosmos 2499 30 Sep 22:30:37 22:36:21 24° 279° (W) 22:42:22 435.465 / 435.565
COMPASS 1 30 Sep 22:42:53 22:44:20 12° 272° (W) 22:45:49 437.405
DELFI C3 30 Sep 22:43:58 22:47:57 70° 258° (WSW) 22:52:00 145.870
ISS 30 Sep 22:44:11 22:47:18 41° 349° (N) 22:50:27 145.825
FUNcube-1 30 Sep 22:57:50 23:01:09 23° 267° (W) 23:04:29 145.935
AO-85 30 Sep 22:57:57 23:02:34 34° 318° (NW) 23:06:54 145.980
UNISAT 6 30 Sep 23:01:19 23:04:24 18° 91° (E) 23:07:31 437.425
GONETS M04 30 Sep 23:04:13 23:08:47 15° 288° (WNW) 23:13:19
PRISM 30 Sep 23:10:19 23:14:24 59° 288° (WNW) 23:18:26 437.425
CUBEBUG 1 30 Sep 23:11:53 23:14:34 16° 60° (ENE) 23:17:14 437.445
VELOX 1 30 Sep 23:16:44 23:19:10 15° 59° (ENE) 23:21:34 145.980
ESTCUBE 1 30 Sep 23:29:44 23:33:49 34° 67° (ENE) 23:37:56 437.505/2401.250
HUMSAT D 30 Sep 23:31:57 23:35:51 42° 262° (W) 23:39:48 437.325/437.525
ANTELSAT 30 Sep 23:35:48 23:39:58 38° 98° (E) 23:44:11 437.575/2403.000
Oscar 11 30 Sep 23:36:23 23:37:09 10° 274° (W) 23:37:54 145.826/435.025
SPROUT 30 Sep 23:37:49 23:39:37 12° 58° (ENE) 23:41:25 437.525
AUBIESAT-1 30 Sep 23:40:43 23:43:09 17° 58° (ENE) 23:45:30 437.475
TIGRISAT 30 Sep 23:55:15 23:59:36 57° 100° (E) 00:04:03 435.000
UKube-1 30 Sep 23:57:30 00:00:26 18° 61° (ENE) 00:03:22 .
RS-15 30 Sep 23:59:42 00:10:45 39° 340° (NNW) 00:22:08 29.354- 29.394
SO-50 01 Oct 00:04:55 00:09:33 83° 234° (SW) 00:14:02 436.795
AISAT 01 Oct 00:07:35 00:11:47 43° 69° (ENE) 00:16:00 437.250
M-CUBED/EXP-1 PRIME 01 Oct 00:19:32 00:23:22 50° 67° (ENE) 00:26:56 437.505
ISS 01 Oct 00:21:06 00:24:13 40° 9° (N) 00:27:22 145.825
QB50P2 01 Oct 00:28:40 00:31:53 21° 93° (E) 00:35:05 145.880/145.840
POLYITAN 1 01 Oct 00:30:50 00:34:03 21° 93° (E) 00:37:16 437.675
DX 1 01 Oct 00:31:12 00:35:23 46° 70° (ENE) 00:39:34 434.975-435.025
JAS-2 01 Oct 00:33:28 00:40:09 30° 89° (E) 00:46:31 435.910
UNISAT 6 01 Oct 00:37:06 00:41:25 52° 288° (WNW) 00:45:47 437.425
AO-85 01 Oct 00:42:40 00:44:21 12° 340° (NNW) 00:46:00 145.980
TISAT 1 01 Oct 00:45:34 00:47:37 13° 59° (ENE) 00:49:39 437.305
CUBEBUG 1 01 Oct 00:45:58 00:50:21 67° 257° (WSW) 00:54:46 437.445
50 SAT 01 Oct 00:47:11 00:50:49 81° 255° (WSW) 00:54:31 437.505
VELOX 1 01 Oct 00:50:36 00:55:02 76° 256° (WSW) 00:59:31 145.980
Cosmos 2491 01 Oct 00:52:24 00:58:59 22° 57° (ENE) 01:05:30 435.465 / 435.565
BUGSAT 1 01 Oct 00:53:15 00:54:58 12° 89° (E) 00:56:41 437.445
BEESAT 3 01 Oct 00:57:18 01:00:47 31° 118° (ESE) 01:04:18 437.485
DUCHIFAT 1 01 Oct 01:03:18 01:07:14 38° 98° (E) 01:11:09 145.980
ESTCUBE 1 01 Oct 01:06:42 01:10:39 29° 265° (W) 01:14:38 437.505/2401.250
QB50P1 01 Oct 01:09:09 01:13:17 50° 100° (E) 01:17:23 145.935-145.965
SPROUT 01 Oct 01:10:40 01:14:56 83° 254° (WSW) 01:19:13 437.525
ANTELSAT 01 Oct 01:12:53 01:16:31 25° 295° (WNW) 01:20:11 437.575/2403.000
AUBIESAT-1 01 Oct 01:13:33 01:17:22 49° 254° (WSW) 01:20:56 437.475
POPSAT HIP 1 01 Oct 01:22:59 01:27:12 70° 102° (ESE) 01:31:24 437.405
UKube-1 01 Oct 01:31:49 01:36:05 56° 259° (W) 01:40:21 .
BEESAT 01 Oct 01:31:51 01:33:02 11° 54° (NE) 01:34:13 436.000
TIGRISAT 01 Oct 01:32:55 01:35:55 18° 298° (WNW) 01:38:58 435.000
NANOSAT C BR1 01 Oct 01:36:52 01:41:06 87° 278° (W) 01:45:18 145.865
AISAT 01 Oct 01:44:58 01:48:26 22° 267° (W) 01:51:55 437.250
SO-50 01 Oct 01:47:47 01:49:12 11° 253° (WSW) 01:50:37 436.795
M-CUBED/EXP-1 PRIME 01 Oct 01:55:42 01:58:05 15° 261° (W) 02:00:23 437.505
ISS 01 Oct 01:57:36 02:00:52 68° 208° (SSW) 02:04:08 145.825
YUBILEINY 01 Oct 01:58:09 02:03:10 17° 73° (ENE) 02:08:10 435.215
BEESAT 2 01 Oct 01:59:27 02:03:22 69° 125° (SE) 02:07:21 435.950
QB50P2 01 Oct 02:03:53 02:07:52 41° 290° (WNW) 02:11:50 145.880/145.840
POLYITAN 1 01 Oct 02:06:03 02:10:01 41° 290° (WNW) 02:14:00 437.675
DX 1 01 Oct 02:08:33 02:11:48 20° 267° (W) 02:15:03 434.975-435.025
RS-15 01 Oct 02:16:22 02:27:29 37° 14° (NNE) 02:38:37 29.354- 29.394
Oscar 19 01 Oct 02:17:02 02:21:05 23° 92° (E) 02:25:05 437.125/150
JAS-2 01 Oct 02:17:53 02:25:44 70° 290° (WNW) 02:33:10 435.910
TISAT 1 01 Oct 02:18:32 02:22:43 74° 258° (WSW) 02:26:54 437.305
BUGSAT 1 01 Oct 02:26:47 02:30:47 64° 287° (WNW) 02:34:46 437.445
BEESAT 3 01 Oct 02:34:52 02:38:25 32° 317° (NW) 02:42:01 437.485
DUCHIFAT 1 01 Oct 02:39:25 02:42:44 23° 295° (WNW) 02:46:03 145.980
